Time,TemperatureF,DewpointF,PressureIn,WindDirection,WindDirectionDegrees,WindSpeedMPH,WindSpeedGustMPH,Humidity,HourlyPrecipIn,Conditions,Clouds,dailyrainin,SolarRadiationWatts/m^2,SoftwareType,DateUTC
2013-04-10 00:02:00,35.0,18.0,30.11,NNW,331,6.0,10.0,50,-99.99,,,-99.99,0.000000,,2013-04-10 07:02:00,
2013-04-10 00:10:00,29.0,18.0,30.12,NW,317,4.0,5.0,64,-99.99,,,-99.99,0.000000,,2013-04-10 07:10:00,
2013-04-10 00:52:00,29.0,18.0,30.12,NW,317,4.0,5.0,64,-99.99,,,-99.99,0.000000,,2013-04-10 07:52:00,
2013-04-10 01:02:00,29.0,18.0,30.12,NW,317,4.0,5.0,64,-99.99,,,-99.99,0.000000,,2013-04-10 08:02:00,
2013-04-10 01:10:00,28.0,19.0,30.13,WNW,302,5.0,7.0,68,-99.99,,,-99.99,0.000000,,2013-04-10 08:10:00,
2013-04-10 01:52:00,28.0,19.0,30.13,WNW,302,5.0,7.0,68,-99.99,,,-99.99,0.000000,,2013-04-10 08:52:00,
2013-04-10 02:02:00,28.0,19.0,30.13,WNW,302,5.0,7.0,68,-99.99,,,-99.99,0.000000,,2013-04-10 09:02:00,
2013-04-10 02:10:00,28.0,19.0,30.12,WNW,300,6.0,7.0,68,-99.99,,,-99.99,0.000000,,2013-04-10 09:10:00,
2013-04-10 02:52:00,28.0,19.0,30.12,WNW,300,6.0,7.0,68,-99.99,,,-99.99,0.000000,,2013-04-10 09:52:00,
2013-04-10 03:02:00,28.0,19.0,30.12,WNW,300,6.0,7.0,68,-99.99,,,-99.99,0.000000,,2013-04-10 10:02:00,
2013-04-10 03:10:00,29.0,19.0,30.11,NW,307,6.0,8.0,65,-99.99,,,-99.99,0.000000,,2013-04-10 10:10:00,
2013-04-10 03:52:00,29.0,19.0,30.11,NW,307,6.0,8.0,65,-99.99,,,-99.99,0.000000,,2013-04-10 10:52:00,
2013-04-10 04:02:00,29.0,19.0,30.11,NW,307,6.0,8.0,65,-99.99,,,-99.99,0.000000,,2013-04-10 11:02:00,
2013-04-10 04:10:00,28.0,19.0,30.12,NW,307,7.0,8.0,68,-99.99,,,-99.99,0.000000,,2013-04-10 11:10:00,
2013-04-10 04:52:00,28.0,19.0,30.12,NW,307,7.0,8.0,68,-99.99,,,-99.99,0.000000,,2013-04-10 11:52:00,
2013-04-10 05:02:00,28.0,19.0,30.12,NW,307,7.0,8.0,68,-99.99,,,-99.99,0.000000,,2013-04-10 12:02:00,
2013-04-10 05:10:00,29.0,18.0,30.12,NW,317,6.0,7.0,63,-99.99,,,-99.99,0.000000,,2013-04-10 12:10:00,
2013-04-10 05:52:00,29.0,18.0,30.12,NW,317,6.0,7.0,63,-99.99,,,-99.99,0.000000,,2013-04-10 12:52:00,
2013-04-10 06:02:00,29.0,18.0,30.12,NW,317,6.0,7.0,63,-99.99,,,-99.99,0.000000,,2013-04-10 13:02:00,
2013-04-10 06:10:00,28.0,19.0,30.13,NW,323,6.0,9.0,66,-99.99,,,-99.99,10.000000,,2013-04-10 13:10:00,
2013-04-10 06:52:00,28.0,19.0,30.13,NW,323,6.0,9.0,66,-99.99,,,-99.99,10.000000,,2013-04-10 13:52:00,
2013-04-10 07:02:00,28.0,19.0,30.13,NW,323,6.0,9.0,66,-99.99,,,-99.99,10.000000,,2013-04-10 14:02:00,
2013-04-10 07:10:00,35.0,18.0,30.14,North,358,8.0,10.0,51,-99.99,,,-99.99,150.000000,,2013-04-10 14:10:00,
2013-04-10 07:52:00,35.0,18.0,30.14,North,358,8.0,10.0,51,-99.99,,,-99.99,150.000000,,2013-04-10 14:52:00,
2013-04-10 08:02:00,35.0,18.0,30.14,North,358,8.0,10.0,51,-99.99,,,-99.99,150.000000,,2013-04-10 15:02:00,
2013-04-10 08:10:00,38.0,19.0,30.15,North,2,10.0,14.0,46,-99.99,,,-99.99,370.000000,,2013-04-10 15:10:00,
2013-04-10 08:52:00,38.0,19.0,30.15,North,2,10.0,14.0,46,-99.99,,,-99.99,370.000000,,2013-04-10 15:52:00,
2013-04-10 09:02:00,38.0,19.0,30.15,North,2,10.0,14.0,46,-99.99,,,-99.99,370.000000,,2013-04-10 16:02:00,
2013-04-10 09:10:00,42.0,18.0,30.16,NNE,30,9.0,17.0,38,-99.99,,,-99.99,590.000000,,2013-04-10 16:10:00,
2013-04-10 09:52:00,42.0,18.0,30.16,NNE,30,9.0,17.0,38,-99.99,,,-99.99,590.000000,,2013-04-10 16:52:00,
2013-04-10 10:02:00,42.0,18.0,30.16,NNE,30,9.0,17.0,38,-99.99,,,-99.99,590.000000,,2013-04-10 17:02:00,
2013-04-10 10:10:00,45.0,19.0,30.16,NNE,31,9.0,15.0,35,-99.99,,,-99.99,770.000000,,2013-04-10 17:10:00,
2013-04-10 10:52:00,45.0,19.0,30.16,NNE,31,9.0,15.0,35,-99.99,,,-99.99,770.000000,,2013-04-10 17:52:00,
2013-04-10 11:02:00,45.0,19.0,30.16,NNE,31,9.0,15.0,35,-99.99,,,-99.99,770.000000,,2013-04-10 18:02:00,
2013-04-10 11:10:00,49.0,19.0,30.15,NNE,29,10.0,18.0,30,-99.99,,,-99.99,900.000000,,2013-04-10 18:10:00,
2013-04-10 11:52:00,49.0,19.0,30.15,NNE,29,10.0,18.0,30,-99.99,,,-99.99,900.000000,,2013-04-10 18:52:00,
2013-04-10 12:03:00,49.0,19.0,30.15,NNE,29,10.0,18.0,30,-99.99,,,-99.99,900.000000,,2013-04-10 19:03:00,
2013-04-10 12:10:00,52.0,20.0,30.13,NNE,29,13.0,18.0,28,-99.99,,,-99.99,970.000000,,2013-04-10 19:10:00,
2013-04-10 12:52:00,52.0,20.0,30.13,NNE,29,13.0,18.0,28,-99.99,,,-99.99,970.000000,,2013-04-10 19:52:00,
2013-04-10 13:02:00,52.0,20.0,30.13,NNE,29,13.0,18.0,28,-99.99,,,-99.99,970.000000,,2013-04-10 20:02:00,
2013-04-10 13:10:00,56.0,22.0,30.10,NNE,13,13.0,22.0,27,-99.99,,,-99.99,970.000000,,2013-04-10 20:10:00,
2013-04-10 13:52:00,56.0,22.0,30.10,NNE,13,13.0,22.0,27,-99.99,,,-99.99,970.000000,,2013-04-10 20:52:00,
2013-04-10 14:02:00,56.0,22.0,30.10,NNE,13,13.0,22.0,27,-99.99,,,-99.99,970.000000,,2013-04-10 21:02:00,
2013-04-10 14:10:00,59.0,25.0,30.08,NNE,15,14.0,22.0,27,-99.99,,,-99.99,950.000000,,2013-04-10 21:10:00,
2013-04-10 15:03:00,59.0,25.0,30.08,NNE,15,14.0,22.0,27,-99.99,,,-99.99,950.000000,,2013-04-10 22:03:00,
2013-04-10 15:10:00,59.0,20.0,30.05,NE,36,5.0,11.0,22,-99.99,,,-99.99,790.000000,,2013-04-10 22:10:00,
2013-04-10 16:02:00,59.0,20.0,30.05,NE,36,5.0,11.0,22,-99.99,,,-99.99,790.000000,,2013-04-10 23:02:00,
2013-04-10 16:10:00,61.0,21.0,30.03,NW,323,15.0,24.0,21,-99.99,,,-99.99,630.000000,,2013-04-10 23:10:00,
2013-04-10 16:52:00,61.0,21.0,30.03,NW,323,15.0,24.0,21,-99.99,,,-99.99,630.000000,,2013-04-10 23:52:00,
2013-04-10 17:02:00,61.0,21.0,30.03,NW,323,15.0,24.0,21,-99.99,,,-99.99,630.000000,,2013-04-11 00:02:00,
2013-04-10 17:10:00,60.0,21.0,30.02,NNW,348,8.0,14.0,22,-99.99,,,-99.99,190.000000,,2013-04-11 00:10:00,
2013-04-10 17:52:00,60.0,21.0,30.02,NNW,348,8.0,14.0,22,-99.99,,,-99.99,190.000000,,2013-04-11 00:52:00,
2013-04-10 18:02:00,60.0,21.0,30.02,NNW,348,8.0,14.0,22,-99.99,,,-99.99,190.000000,,2013-04-11 01:02:00,
2013-04-10 19:10:00,57.0,19.0,30.01,West,276,12.0,27.0,23,-99.99,,,-99.99,10.000000,,2013-04-11 02:10:00,
2013-04-10 19:52:00,57.0,19.0,30.01,West,276,12.0,27.0,23,-99.99,,,-99.99,10.000000,,2013-04-11 02:52:00,
2013-04-10 20:02:00,57.0,19.0,30.01,West,276,12.0,27.0,23,-99.99,,,-99.99,10.000000,,2013-04-11 03:02:00,
2013-04-10 20:10:00,55.0,22.0,30.02,West,281,10.0,17.0,28,-99.99,,,-99.99,0.000000,,2013-04-11 03:10:00,
2013-04-10 20:53:00,55.0,22.0,30.02,West,281,10.0,17.0,28,-99.99,,,-99.99,0.000000,,2013-04-11 03:53:00,
2013-04-10 21:03:00,55.0,22.0,30.02,West,281,10.0,17.0,28,-99.99,,,-99.99,0.000000,,2013-04-11 04:03:00,
2013-04-10 21:10:00,54.0,22.0,30.03,NNW,337,7.0,12.0,29,-99.99,,,-99.99,0.000000,,2013-04-11 04:10:00,
2013-04-10 21:52:00,54.0,22.0,30.03,NNW,337,7.0,12.0,29,-99.99,,,-99.99,0.000000,,2013-04-11 04:52:00,
2013-04-10 22:02:00,54.0,22.0,30.03,NNW,337,7.0,12.0,29,-99.99,,,-99.99,0.000000,,2013-04-11 05:02:00,
2013-04-10 23:10:00,46.0,22.0,29.99,South,186,5.0,7.0,38,-99.99,,,-99.99,0.000000,,2013-04-11 06:10:00,
2013-04-10 23:52:00,46.0,22.0,29.99,South,186,5.0,7.0,38,-99.99,,,-99.99,0.000000,,2013-04-11 06:52:00,